Simultaneous Nadir Overpasses (SNOs) Predictions

Prediction of SNOs between NOAA-20 and LANDSAT-8 Satellite Orbit:

Table of predicted SNOs for the next 14.0 days since TLE Epoch: 2/27/2021
Index Date (NOAA-20) Time (NOAA-20) Lat,Lon (NOAA-20) SZA (NOAA-20 ) Date (LANDSAT-8) Time (LANDSAT-8) Lat,Lon (LANDSAT-8) SZA (LANDSAT-8 ) Distance(km) Time Diff (sec)
1 02/27/2021 15:06:07 -70.10, 129.72 101.77 02/27/2021 15:06:39 -70.12, 129.78 101.75 3.24 32
2 02/27/2021 15:56:51 69.99, -62.80 78.11 02/27/2021 15:56:07 69.97, -62.79 78.10 1.89 44
3 03/02/2021 06:32:23 70.42, 77.69 77.57 03/02/2021 06:33:34 70.34, 78.34 77.45 25.65 71
4 03/02/2021 07:23:00 -70.06,-114.44 102.83 03/02/2021 07:23:07 -70.06,-114.43 102.83 0.25 7
5 03/02/2021 08:13:44 69.95, 53.04 77.04 03/02/2021 08:12:34 69.96, 53.07 77.06 1.61 70
6 03/04/2021 22:49:12 70.12,-166.06 76.21 03/04/2021 22:50:06 70.10,-166.12 76.19 2.63 54
7 03/04/2021 23:39:54 -70.02, 1.40 103.91 03/04/2021 23:39:35 -70.05, 1.43 103.88 3.34 19
8 03/05/2021 00:30:23 69.11, 170.03 75.13 03/05/2021 00:29:16 69.17, 167.88 75.28 85.28 67
9 03/07/2021 15:06:06 70.08, -50.23 75.13 03/07/2021 15:06:34 70.08, -50.27 75.12 1.68 28
10 03/07/2021 15:56:48 -69.98, 117.24 105.00 03/07/2021 15:56:04 -69.97, 117.21 105.00 1.45 44
11 03/10/2021 06:32:21 -70.41,-102.28 105.57 03/10/2021 06:33:32 -70.33,-101.68 105.68 24.04 71
12 03/10/2021 07:23:00 70.05, 65.60 74.04 03/10/2021 07:23:02 70.05, 65.57 74.05 1.45 2
13 03/10/2021 08:13:42 -69.94,-126.93 106.09 03/10/2021 08:12:32 -69.95,-126.95 106.07 0.86 70
14 03/12/2021 22:49:09 -70.11, 13.96 106.94 03/12/2021 22:50:02 -70.14, 13.92 106.93 2.87 53
15 03/12/2021 23:39:53 70.01,-178.57 72.95 03/12/2021 23:39:29 70.02,-178.60 72.96 1.11 24



Historial Predications of SNOs between NOAA-20 and LANDSAT-8
